Time,TemperatureF,DewpointF,PressureIn,WindDirection,WindDirectionDegrees,WindSpeedMPH,WindSpeedGustMPH,Humidity,HourlyPrecipIn,Conditions,Clouds,dailyrainin,SoftwareType,DateUTC
2013-06-28 00:00:00,66.6,57.2,29.81,South,184,4.0,7.0,72,0.00,,,0.00,VWS V14.01,2013-06-28 05:00:00,
2013-06-28 00:01:00,66.6,57.6,29.81,SSW,195,4.0,4.0,73,0.00,,,0.00,VWS V14.01,2013-06-28 05:01:00,
2013-06-28 00:06:00,66.5,57.5,29.81,South,186,5.0,7.0,73,0.00,,,0.00,VWS V14.01,2013-06-28 05:06:00,
2013-06-28 00:11:00,66.5,57.5,29.81,SSW,211,3.0,7.0,73,0.00,,,0.00,VWS V14.01,2013-06-28 05:11:00,
2013-06-28 00:15:00,66.4,57.4,29.81,SSW,200,4.0,7.0,73,0.00,,,0.00,VWS V14.01,2013-06-28 05:15:00,
2013-06-28 00:16:00,66.4,57.4,29.81,SSW,209,3.0,5.0,73,0.00,,,0.00,VWS V14.01,2013-06-28 05:16:00,
2013-06-28 00:21:00,66.3,57.3,29.81,South,183,3.0,6.0,73,0.00,,,0.00,VWS V14.01,2013-06-28 05:21:00,
2013-06-28 00:26:00,66.3,57.7,29.81,SW,224,5.0,6.0,74,0.00,,,0.00,VWS V14.01,2013-06-28 05:26:00,
2013-06-28 00:30:00,66.1,57.5,29.81,South,184,4.0,6.0,74,0.00,,,0.00,VWS V14.01,2013-06-28 05:30:00,
2013-06-28 00:31:00,66.0,57.4,29.81,SSW,211,2.0,5.0,74,0.00,,,0.00,VWS V14.01,2013-06-28 05:31:00,
2013-06-28 00:36:00,65.8,57.5,29.81,SSW,209,3.0,6.0,75,0.00,,,0.00,VWS V14.01,2013-06-28 05:36:00,
2013-06-28 00:41:00,65.5,57.6,29.81,SSW,210,3.0,6.0,76,0.00,,,0.00,VWS V14.01,2013-06-28 05:41:00,
2013-06-28 00:45:00,65.2,57.3,29.81,South,177,4.0,6.0,76,0.00,,,0.00,VWS V14.01,2013-06-28 05:45:00,
2013-06-28 00:46:00,65.2,57.3,29.82,SSW,204,4.0,6.0,76,0.00,,,0.00,VWS V14.01,2013-06-28 05:46:00,
2013-06-28 00:51:00,65.0,57.5,29.82,SSW,209,3.0,6.0,77,0.00,,,0.00,VWS V14.01,2013-06-28 05:51:00,
2013-06-28 00:56:00,64.9,57.4,29.82,South,186,2.0,6.0,77,0.00,,,0.00,VWS V14.01,2013-06-28 05:56:00,
2013-06-28 01:00:00,64.8,57.7,29.82,SSW,213,3.0,6.0,78,0.00,,,0.00,VWS V14.01,2013-06-28 06:00:00,
2013-06-28 01:01:00,64.8,57.7,29.82,SSW,210,4.0,5.0,78,0.00,,,0.00,VWS V14.01,2013-06-28 06:01:00,
2013-06-28 01:06:00,64.6,57.5,29.82,South,187,4.0,6.0,78,0.00,,,0.00,VWS V14.01,2013-06-28 06:06:00,
2013-06-28 01:11:00,64.4,57.7,29.82,SSW,213,6.0,6.0,79,0.00,,,0.00,VWS V14.01,2013-06-28 06:11:00,
2013-06-28 01:15:00,64.3,57.5,29.82,South,186,3.0,6.0,79,0.00,,,0.00,VWS V14.01,2013-06-28 06:15:00,
2013-06-28 01:16:00,64.3,57.5,29.82,SW,216,3.0,3.0,79,0.00,,,0.00,VWS V14.01,2013-06-28 06:16:00,
2013-06-28 01:21:00,64.2,57.5,29.82,SSW,204,3.0,4.0,79,0.00,,,0.00,VWS V14.01,2013-06-28 06:21:00,
2013-06-28 01:26:00,64.3,57.5,29.82,SSW,204,4.0,6.0,79,0.00,,,0.00,VWS V14.01,2013-06-28 06:26:00,
2013-06-28 01:30:00,64.3,57.5,29.82,SSW,206,3.0,6.0,79,0.00,,,0.00,VWS V14.01,2013-06-28 06:30:00,
2013-06-28 01:31:00,64.4,57.7,29.82,SSW,202,4.0,4.0,79,0.00,,,0.00,VWS V14.01,2013-06-28 06:31:00,
2013-06-28 01:36:00,64.5,57.4,29.82,SSW,205,4.0,7.0,78,0.00,,,0.00,VWS V14.01,2013-06-28 06:36:00,
2013-06-28 01:41:00,64.6,57.5,29.82,SSW,203,3.0,7.0,78,0.00,,,0.00,VWS V14.01,2013-06-28 06:41:00,
2013-06-28 01:45:00,64.7,57.6,29.82,SSW,208,3.0,7.0,78,0.00,,,0.00,VWS V14.01,2013-06-28 06:45:00,
2013-06-28 01:46:00,64.7,57.6,29.82,SSW,205,4.0,4.0,78,0.00,,,0.00,VWS V14.01,2013-06-28 06:46:00,
2013-06-28 01:51:00,64.6,57.5,29.82,SSW,208,2.0,5.0,78,0.00,,,0.00,VWS V14.01,2013-06-28 06:51:00,
2013-06-28 01:56:00,64.5,57.4,29.82,SSW,211,2.0,5.0,78,0.00,,,0.00,VWS V14.01,2013-06-28 06:56:00,
2013-06-28 02:00:00,64.4,57.7,29.82,SSW,209,4.0,5.0,79,0.00,,,0.00,VWS V14.01,2013-06-28 07:00:00,
2013-06-28 02:01:00,64.4,57.7,29.82,South,182,3.0,5.0,79,0.00,,,0.00,VWS V14.01,2013-06-28 07:01:00,
2013-06-28 02:06:00,64.2,57.5,29.82,SSW,209,3.0,6.0,79,0.00,,,0.00,VWS V14.01,2013-06-28 07:06:00,
2013-06-28 02:11:00,64.1,57.4,29.82,SSW,202,4.0,6.0,79,0.00,,,0.00,VWS V14.01,2013-06-28 07:11:00,
2013-06-28 02:15:00,64.0,57.6,29.82,SSW,205,3.0,6.0,80,0.00,,,0.00,VWS V14.01,2013-06-28 07:15:00,
2013-06-28 02:16:00,64.0,57.6,29.82,SSW,202,4.0,4.0,80,0.00,,,0.00,VWS V14.01,2013-06-28 07:16:00,
2013-06-28 02:21:00,63.9,57.5,29.82,SSW,210,5.0,7.0,80,0.00,,,0.00,VWS V14.01,2013-06-28 07:21:00,
2013-06-28 02:26:00,63.8,57.8,29.82,South,190,4.0,7.0,81,0.00,,,0.00,VWS V14.01,2013-06-28 07:26:00,
2013-06-28 02:30:00,63.6,57.6,29.83,SSW,209,4.0,7.0,81,0.00,,,0.00,VWS V14.01,2013-06-28 07:30:00,
2013-06-28 02:31:00,63.6,57.6,29.82,SSW,196,3.0,4.0,81,0.00,,,0.00,VWS V14.01,2013-06-28 07:31:00,
2013-06-28 02:36:00,63.5,57.5,29.82,SW,218,2.0,5.0,81,0.00,,,0.00,VWS V14.01,2013-06-28 07:36:00,
2013-06-28 02:41:00,63.5,57.5,29.82,SSW,200,4.0,5.0,81,0.00,,,0.00,VWS V14.01,2013-06-28 07:41:00,
2013-06-28 02:45:00,63.5,57.8,29.83,SW,217,5.0,5.0,82,0.00,,,0.00,VWS V14.01,2013-06-28 07:45:00,
2013-06-28 02:46:00,63.5,57.8,29.82,SW,214,3.0,5.0,82,0.00,,,0.00,VWS V14.01,2013-06-28 07:46:00,
2013-06-28 02:51:00,63.6,57.6,29.82,SSW,203,4.0,5.0,81,0.00,,,0.00,VWS V14.01,2013-06-28 07:51:00,
2013-06-28 02:56:00,63.6,57.9,29.83,SSW,210,4.0,5.0,82,0.00,,,0.00,VWS V14.01,2013-06-28 07:56:00,
2013-06-28 03:00:00,63.5,57.8,29.82,SSW,212,3.0,6.0,82,0.00,,,0.00,VWS V14.01,2013-06-28 08:00:00,
2013-06-28 03:01:00,63.5,57.8,29.82,SSW,213,4.0,4.0,82,0.00,,,0.00,VWS V14.01,2013-06-28 08:01:00,
2013-06-28 03:06:00,63.3,57.6,29.83,SSW,202,4.0,5.0,82,0.00,,,0.00,VWS V14.01,2013-06-28 08:06:00,
2013-06-28 03:11:00,63.2,57.9,29.83,SSW,207,4.0,5.0,83,0.00,,,0.00,VWS V14.01,2013-06-28 08:11:00,
2013-06-28 03:15:00,63.2,57.9,29.83,SSW,211,4.0,7.0,83,0.00,,,0.00,VWS V14.01,2013-06-28 08:15:00,
2013-06-28 03:16:00,63.2,57.9,29.83,SW,218,4.0,5.0,83,0.00,,,0.00,VWS V14.01,2013-06-28 08:16:00,
2013-06-28 03:21:00,63.2,57.9,29.83,SW,222,4.0,6.0,83,0.00,,,0.00,VWS V14.01,2013-06-28 08:21:00,
2013-06-28 03:26:00,63.1,57.8,29.83,SSW,211,4.0,6.0,83,0.00,,,0.00,VWS V14.01,2013-06-28 08:26:00,
2013-06-28 03:30:00,63.1,57.8,29.83,SSW,202,3.0,6.0,83,0.00,,,0.00,VWS V14.01,2013-06-28 08:30:00,
2013-06-28 03:31:00,63.1,57.8,29.83,SSW,198,5.0,6.0,83,0.00,,,0.00,VWS V14.01,2013-06-28 08:31:00,
2013-06-28 03:36:00,63.0,57.7,29.83,SW,229,7.0,7.0,83,0.00,,,0.00,VWS V14.01,2013-06-28 08:36:00,
2013-06-28 03:41:00,63.0,57.7,29.83,SSW,205,5.0,7.0,83,0.00,,,0.00,VWS V14.01,2013-06-28 08:41:00,
2013-06-28 03:45:00,63.0,57.7,29.83,SW,220,6.0,7.0,83,0.00,,,0.00,VWS V14.01,2013-06-28 08:45:00,
2013-06-28 03:46:00,63.0,57.7,29.83,SSW,192,5.0,6.0,83,0.00,,,0.00,VWS V14.01,2013-06-28 08:46:00,
2013-06-28 03:51:00,62.9,57.9,29.83,SW,225,5.0,7.0,84,0.00,,,0.00,VWS V14.01,2013-06-28 08:51:00,
2013-06-28 03:56:00,62.7,57.7,29.83,SW,215,5.0,8.0,84,0.00,,,0.00,VWS V14.01,2013-06-28 08:56:00,
2013-06-28 04:00:00,62.6,57.6,29.83,SSW,212,5.0,8.0,84,0.00,,,0.00,VWS V14.01,2013-06-28 09:00:00,
2013-06-28 04:01:00,62.5,57.5,29.83,SW,216,4.0,6.0,84,0.00,,,0.00,VWS V14.01,2013-06-28 09:01:00,
2013-06-28 04:06:00,62.4,57.7,29.83,SSW,211,4.0,6.0,85,0.00,,,0.00,VWS V14.01,2013-06-28 09:06:00,
2013-06-28 04:11:00,62.3,57.6,29.83,SSW,211,5.0,8.0,85,0.00,,,0.00,VWS V14.01,2013-06-28 09:11:00,
2013-06-28 04:15:00,62.3,57.6,29.83,SW,225,5.0,8.0,85,0.00,,,0.00,VWS V14.01,2013-06-28 09:15:00,
2013-06-28 04:16:00,62.3,57.6,29.83,SW,219,5.0,6.0,85,0.00,,,0.00,VWS V14.01,2013-06-28 09:16:00,
2013-06-28 04:21:00,62.2,57.5,29.83,SW,224,6.0,7.0,85,0.00,,,0.00,VWS V14.01,2013-06-28 09:21:00,
2013-06-28 04:26:00,62.2,57.5,29.83,SW,218,5.0,7.0,85,0.00,,,0.00,VWS V14.01,2013-06-28 09:26:00,
2013-06-28 04:30:00,62.1,57.4,29.84,SW,223,5.0,7.0,85,0.00,,,0.00,VWS V14.01,2013-06-28 09:30:00,
2013-06-28 04:31:00,62.1,57.5,29.84,SW,234,6.0,6.0,85,0.00,,,0.00,VWS V14.01,2013-06-28 09:31:00,
2013-06-28 04:36:00,61.8,57.2,29.84,SW,215,4.0,6.0,85,0.00,,,0.00,VWS V14.01,2013-06-28 09:36:00,
2013-06-28 04:41:00,61.6,57.3,29.84,SW,222,3.0,6.0,86,0.00,,,0.00,VWS V14.01,2013-06-28 09:41:00,
2013-06-28 04:45:00,61.5,57.2,29.84,SSW,209,3.0,6.0,86,0.00,,,0.00,VWS V14.01,2013-06-28 09:45:00,
2013-06-28 04:46:00,61.5,57.2,29.84,SSW,209,4.0,4.0,86,0.00,,,0.00,VWS V14.01,2013-06-28 09:46:00,
2013-06-28 04:51:00,61.4,57.1,29.84,SSW,207,4.0,5.0,86,0.00,,,0.00,VWS V14.01,2013-06-28 09:51:00,
2013-06-28 04:56:00,61.5,57.5,29.84,SSW,200,4.0,6.0,87,0.00,,,0.00,VWS V14.01,2013-06-28 09:56:00,
2013-06-28 05:00:00,61.6,57.6,29.84,SSW,206,3.0,6.0,87,0.00,,,0.00,VWS V14.01,2013-06-28 10:00:00,
2013-06-28 05:01:00,61.6,57.6,29.84,SW,217,4.0,4.0,87,0.00,,,0.00,VWS V14.01,2013-06-28 10:01:00,
2013-06-28 05:06:00,61.6,57.6,29.84,SW,222,6.0,7.0,87,0.00,,,0.00,VWS V14.01,2013-06-28 10:06:00,
2013-06-28 05:11:00,61.6,57.3,29.84,SW,220,4.0,7.0,86,0.00,,,0.00,VWS V14.01,2013-06-28 10:11:00,
2013-06-28 05:15:00,61.6,57.6,29.85,SSW,207,3.0,7.0,87,0.00,,,0.00,VWS V14.01,2013-06-28 10:15:00,
2013-06-28 05:16:00,61.5,57.5,29.84,SSW,195,4.0,5.0,87,0.00,,,0.00,VWS V14.01,2013-06-28 10:16:00,
2013-06-28 05:21:00,61.5,57.5,29.85,SSW,205,3.0,5.0,87,0.00,,,0.00,VWS V14.01,2013-06-28 10:21:00,
2013-06-28 05:26:00,61.5,57.5,29.85,SSW,209,4.0,5.0,87,0.00,,,0.00,VWS V14.01,2013-06-28 10:26:00,
2013-06-28 05:30:00,61.5,57.5,29.85,SW,216,4.0,6.0,87,0.00,,,0.00,VWS V14.01,2013-06-28 10:30:00,
2013-06-28 05:31:00,61.5,57.5,29.85,SSW,196,1.0,4.0,87,0.00,,,0.00,VWS V14.01,2013-06-28 10:31:00,
2013-06-28 05:36:00,61.5,57.5,29.85,SW,217,3.0,5.0,87,0.00,,,0.00,VWS V14.01,2013-06-28 10:36:00,
2013-06-28 05:41:00,61.4,57.4,29.85,SSW,200,3.0,5.0,87,0.00,,,0.00,VWS V14.01,2013-06-28 10:41:00,
2013-06-28 05:45:00,61.4,57.4,29.85,SSW,207,2.0,5.0,87,0.00,,,0.00,VWS V14.01,2013-06-28 10:45:00,
2013-06-28 05:46:00,61.4,57.4,29.85,SW,215,4.0,5.0,87,0.00,,,0.00,VWS V14.01,2013-06-28 10:46:00,
2013-06-28 05:51:00,61.5,57.2,29.85,SSW,213,4.0,5.0,86,0.00,,,0.00,VWS V14.01,2013-06-28 10:51:00,
2013-06-28 05:56:00,61.3,57.0,29.85,SSW,202,2.0,5.0,86,0.00,,,0.00,VWS V14.01,2013-06-28 10:56:00,
2013-06-28 06:00:00,61.2,57.2,29.86,SSW,202,2.0,5.0,87,0.00,,,0.00,VWS V14.01,2013-06-28 11:00:00,
2013-06-28 06:01:00,61.2,57.2,29.85,SSW,204,3.0,3.0,87,0.00,,,0.00,VWS V14.01,2013-06-28 11:01:00,
2013-06-28 06:06:00,61.1,57.1,29.85,South,187,5.0,6.0,87,0.00,,,0.00,VWS V14.01,2013-06-28 11:06:00,
2013-06-28 06:11:00,61.2,57.2,29.85,SW,214,7.0,7.0,87,0.00,,,0.00,VWS V14.01,2013-06-28 11:11:00,
2013-06-28 06:15:00,61.3,57.3,29.86,SW,218,2.0,7.0,87,0.00,,,0.00,VWS V14.01,2013-06-28 11:15:00,
2013-06-28 06:16:00,61.2,57.2,29.86,SSW,207,2.0,4.0,87,0.00,,,0.00,VWS V14.01,2013-06-28 11:16:00,
2013-06-28 06:21:00,61.2,57.2,29.86,South,175,2.0,4.0,87,0.00,,,0.00,VWS V14.01,2013-06-28 11:21:00,
2013-06-28 06:26:00,61.2,57.2,29.86,SSW,207,3.0,5.0,87,0.00,,,0.00,VWS V14.01,2013-06-28 11:26:00,
2013-06-28 06:30:00,61.2,57.2,29.86,South,177,1.0,5.0,87,0.00,,,0.00,VWS V14.01,2013-06-28 11:30:00,
2013-06-28 06:31:00,61.2,57.2,29.86,South,179,2.0,3.0,87,0.00,,,0.00,VWS V14.01,2013-06-28 11:31:00,
2013-06-28 06:36:00,61.3,57.3,29.86,SSW,207,2.0,4.0,87,0.00,,,0.00,VWS V14.01,2013-06-28 11:36:00,
2013-06-28 06:41:00,61.5,57.5,29.87,SSW,193,2.0,5.0,87,0.00,,,0.00,VWS V14.01,2013-06-28 11:41:00,
2013-06-28 06:45:00,61.7,57.7,29.87,South,175,4.0,5.0,87,0.00,,,0.00,VWS V14.01,2013-06-28 11:45:00,
2013-06-28 06:46:00,61.7,57.7,29.87,SSW,194,2.0,4.0,87,0.00,,,0.00,VWS V14.01,2013-06-28 11:46:00,
2013-06-28 06:51:00,62.0,57.7,29.87,SSW,202,3.0,5.0,86,0.00,,,0.00,VWS V14.01,2013-06-28 11:51:00,
2013-06-28 06:56:00,62.1,57.8,29.87,SSW,201,3.0,5.0,86,0.00,,,0.00,VWS V14.01,2013-06-28 11:56:00,
2013-06-28 07:00:00,62.3,58.0,29.87,SSW,207,2.0,5.0,86,0.00,,,0.00,VWS V14.01,2013-06-28 12:00:00,
2013-06-28 07:01:00,62.3,58.0,29.87,SSW,208,2.0,3.0,86,0.00,,,0.00,VWS V14.01,2013-06-28 12:01:00,
2013-06-28 07:06:00,62.5,58.2,29.87,SW,232,2.0,5.0,86,0.00,,,0.00,VWS V14.01,2013-06-28 12:06:00,
2013-06-28 07:11:00,62.6,58.3,29.87,SW,223,3.0,6.0,86,0.00,,,0.00,VWS V14.01,2013-06-28 12:11:00,
2013-06-28 07:15:00,62.7,58.0,29.88,SW,215,3.0,6.0,85,0.00,,,0.00,VWS V14.01,2013-06-28 12:15:00,
2013-06-28 07:16:00,62.7,58.4,29.88,SW,215,2.0,3.0,86,0.00,,,0.00,VWS V14.01,2013-06-28 12:16:00,
2013-06-28 07:21:00,62.9,58.6,29.88,SSW,194,2.0,4.0,86,0.00,,,0.00,VWS V14.01,2013-06-28 12:21:00,
2013-06-28 07:26:00,63.2,58.5,29.88,SSW,212,3.0,5.0,85,0.00,,,0.00,VWS V14.01,2013-06-28 12:26:00,
2013-06-28 07:30:00,63.5,58.8,29.88,SW,222,5.0,6.0,85,0.00,,,0.00,VWS V14.01,2013-06-28 12:30:00,
2013-06-28 07:31:00,63.5,58.8,29.88,SSW,205,5.0,6.0,85,0.00,,,0.00,VWS V14.01,2013-06-28 12:31:00,
2013-06-28 07:36:00,63.9,58.9,29.88,SSW,205,3.0,6.0,84,0.00,,,0.00,VWS V14.01,2013-06-28 12:36:00,
2013-06-28 07:41:00,64.1,59.1,29.88,SW,228,2.0,6.0,84,0.00,,,0.00,VWS V14.01,2013-06-28 12:41:00,
2013-06-28 07:45:00,64.3,59.3,29.88,SW,236,5.0,6.0,84,0.00,,,0.00,VWS V14.01,2013-06-28 12:45:00,
2013-06-28 07:46:00,64.3,59.3,29.88,SSW,213,4.0,5.0,84,0.00,,,0.00,VWS V14.01,2013-06-28 12:46:00,
2013-06-28 07:51:00,64.6,59.2,29.88,SW,223,5.0,8.0,83,0.00,,,0.00,VWS V14.01,2013-06-28 12:51:00,
2013-06-28 07:56:00,65.0,59.3,29.88,SW,216,4.0,8.0,82,0.00,,,0.00,VWS V14.01,2013-06-28 12:56:00,
2013-06-28 08:00:00,65.4,59.7,29.88,SW,217,6.0,8.0,82,0.00,,,0.00,VWS V14.01,2013-06-28 13:00:00,
2013-06-28 08:01:00,65.5,60.4,29.88,SSW,198,4.0,6.0,84,0.00,,,0.00,VWS V14.01,2013-06-28 13:01:00,
2013-06-28 08:06:00,65.9,59.8,29.88,WSW,238,5.0,8.0,81,0.00,,,0.00,VWS V14.01,2013-06-28 13:06:00,
2013-06-28 08:11:00,66.4,59.9,29.88,SSW,198,4.0,10.0,80,0.00,,,0.00,VWS V14.01,2013-06-28 13:11:00,
2013-06-28 08:15:00,66.8,60.0,29.88,SW,226,9.0,10.0,79,0.00,,,0.00,VWS V14.01,2013-06-28 13:15:00,
2013-06-28 08:16:00,66.9,60.1,29.88,WSW,242,7.0,9.0,79,0.00,,,0.00,VWS V14.01,2013-06-28 13:16:00,
2013-06-28 08:21:00,67.2,59.6,29.88,WSW,250,6.0,11.0,77,0.00,,,0.00,VWS V14.01,2013-06-28 13:21:00,
2013-06-28 08:26:00,67.4,59.8,29.88,SSW,209,7.0,11.0,77,0.00,,,0.00,VWS V14.01,2013-06-28 13:26:00,
2013-06-28 08:30:00,67.8,59.9,29.88,SW,223,7.0,11.0,76,0.00,,,0.00,VWS V14.01,2013-06-28 13:30:00,
2013-06-28 08:31:00,67.8,59.9,29.88,SSW,213,5.0,7.0,76,0.00,,,0.00,VWS V14.01,2013-06-28 13:31:00,
2013-06-28 08:36:00,68.1,59.8,29.88,SSW,210,5.0,11.0,75,0.00,,,0.00,VWS V14.01,2013-06-28 13:36:00,
2013-06-28 08:41:00,68.5,60.2,29.88,WSW,239,5.0,11.0,75,0.00,,,0.00,VWS V14.01,2013-06-28 13:41:00,
2013-06-28 08:45:00,68.7,60.0,29.88,SW,217,8.0,13.0,74,0.00,,,0.00,VWS V14.01,2013-06-28 13:45:00,
2013-06-28 08:46:00,68.8,60.1,29.88,SW,217,8.0,10.0,74,0.00,,,0.00,VWS V14.01,2013-06-28 13:46:00,
2013-06-28 08:51:00,69.2,60.1,29.88,SW,225,10.0,11.0,73,0.00,,,0.00,VWS V14.01,2013-06-28 13:51:00,
2013-06-28 08:56:00,69.7,60.2,29.88,SW,216,9.0,12.0,72,0.00,,,0.00,VWS V14.01,2013-06-28 13:56:00,
2013-06-28 09:00:00,70.1,60.2,29.88,SW,221,6.0,12.0,71,0.00,,,0.00,VWS V14.01,2013-06-28 14:00:00,
2013-06-28 09:15:00,71.0,59.8,29.88,SW,225,9.0,14.0,68,0.00,,,0.00,VWS V14.01,2013-06-28 14:15:00,
2013-06-28 09:30:00,71.7,59.2,29.88,SW,225,9.0,14.0,65,0.00,,,0.00,VWS V14.01,2013-06-28 14:30:00,
2013-06-28 09:45:00,72.6,58.7,29.88,SW,225,9.0,17.0,62,0.00,,,0.00,VWS V14.01,2013-06-28 14:45:00,
2013-06-28 10:00:00,73.3,58.5,29.88,SW,225,10.0,17.0,60,0.00,,,0.00,VWS V14.01,2013-06-28 15:00:00,
2013-06-28 10:15:00,74.0,59.6,29.88,SW,225,9.0,15.0,61,0.00,,,0.00,VWS V14.01,2013-06-28 15:15:00,
2013-06-28 10:30:00,74.6,58.7,29.88,SW,225,9.0,15.0,58,0.00,,,0.00,VWS V14.01,2013-06-28 15:30:00,
2013-06-28 10:45:00,75.2,58.3,29.87,SW,225,9.0,17.0,56,0.00,,,0.00,VWS V14.01,2013-06-28 15:45:00,
2013-06-28 11:00:00,75.5,58.1,29.88,SW,225,11.0,19.0,55,0.00,,,0.00,VWS V14.01,2013-06-28 16:00:00,
2013-06-28 11:15:00,75.8,58.3,29.88,SW,225,9.0,17.0,55,0.00,,,0.00,VWS V14.01,2013-06-28 16:15:00,
2013-06-28 11:30:00,76.1,58.1,29.88,SW,225,9.0,18.0,54,0.00,,,0.00,VWS V14.01,2013-06-28 16:30:00,
2013-06-28 11:45:00,76.5,56.3,29.87,SW,225,11.0,20.0,50,0.00,,,0.00,VWS V14.01,2013-06-28 16:45:00,
2013-06-28 12:00:00,77.1,58.0,29.87,SW,225,10.0,18.0,52,0.00,,,0.00,VWS V14.01,2013-06-28 17:00:00,
2013-06-28 12:15:00,76.9,56.7,29.87,SW,225,11.0,23.0,50,0.00,,,0.00,VWS V14.01,2013-06-28 17:15:00,
2013-06-28 12:30:00,78.0,58.3,29.87,SW,225,10.0,20.0,51,0.00,,,0.00,VWS V14.01,2013-06-28 17:30:00,
2013-06-28 12:45:00,77.3,56.5,29.87,SW,225,10.0,19.0,49,0.00,,,0.00,VWS V14.01,2013-06-28 17:45:00,
2013-06-28 13:00:00,77.5,57.8,29.87,SW,225,12.0,24.0,51,0.00,,,0.00,VWS V14.01,2013-06-28 18:00:00,
2013-06-28 13:15:00,78.3,57.4,29.87,SW,225,10.0,24.0,49,0.00,,,0.00,VWS V14.01,2013-06-28 18:15:00,
2013-06-28 13:30:00,78.2,57.3,29.86,SW,225,12.0,22.0,49,0.00,,,0.00,VWS V14.01,2013-06-28 18:30:00,
2013-06-28 13:45:00,78.4,58.6,29.86,SW,225,12.0,24.0,51,0.00,,,0.00,VWS V14.01,2013-06-28 18:45:00,
2013-06-28 14:00:00,78.5,55.8,29.86,SW,225,11.0,20.0,46,0.00,,,0.00,VWS V14.01,2013-06-28 19:00:00,
2013-06-28 14:15:00,78.9,56.8,29.85,SW,225,11.0,20.0,47,0.00,,,0.00,VWS V14.01,2013-06-28 19:15:00,
2013-06-28 14:30:00,78.9,56.8,29.85,SW,225,12.0,20.0,47,0.00,,,0.00,VWS V14.01,2013-06-28 19:30:00,
2013-06-28 14:45:00,77.6,57.9,29.85,SW,225,10.0,18.0,51,0.00,,,0.00,VWS V14.01,2013-06-28 19:45:00,
2013-06-28 15:00:00,78.8,60.6,29.85,SW,225,9.0,18.0,54,0.00,,,0.00,VWS V14.01,2013-06-28 20:00:00,
2013-06-28 15:15:00,77.9,58.7,29.85,SW,225,9.0,21.0,52,0.00,,,0.00,VWS V14.01,2013-06-28 20:15:00,
2013-06-28 15:30:00,79.4,58.4,29.85,SW,225,12.0,22.0,49,0.00,,,0.00,VWS V14.01,2013-06-28 20:30:00,
2013-06-28 15:45:00,79.1,58.7,29.85,SW,225,11.0,24.0,50,0.00,,,0.00,VWS V14.01,2013-06-28 20:45:00,
2013-06-28 16:00:00,78.7,56.6,29.85,SW,225,11.0,20.0,47,0.00,,,0.00,VWS V14.01,2013-06-28 21:00:00,
2013-06-28 16:15:00,79.8,57.0,29.85,SW,225,11.0,22.0,46,0.00,,,0.00,VWS V14.01,2013-06-28 21:15:00,
2013-06-28 16:30:00,79.4,57.8,29.84,SW,225,10.0,22.0,48,0.00,,,0.00,VWS V14.01,2013-06-28 21:30:00,
2013-06-28 16:45:00,78.9,55.6,29.84,SW,225,11.0,21.0,45,0.00,,,0.00,VWS V14.01,2013-06-28 21:45:00,
2013-06-28 17:00:00,79.4,56.7,29.85,SW,225,12.0,21.0,46,0.00,,,0.00,VWS V14.01,2013-06-28 22:00:00,
2013-06-28 17:15:00,79.7,53.7,29.84,SW,225,11.0,20.0,41,0.00,,,0.00,VWS V14.01,2013-06-28 22:15:00,
2013-06-28 17:30:00,79.7,54.4,29.84,SW,225,11.0,20.0,42,0.00,,,0.00,VWS V14.01,2013-06-28 22:30:00,
2013-06-28 17:45:00,79.2,55.2,29.84,SW,225,11.0,21.0,44,0.00,,,0.00,VWS V14.01,2013-06-28 22:45:00,
2013-06-28 18:00:00,79.3,56.6,29.84,SW,225,10.0,24.0,46,0.00,,,0.00,VWS V14.01,2013-06-28 23:00:00,
2013-06-28 18:15:00,79.3,56.6,29.84,SW,225,13.0,23.0,46,0.00,,,0.00,VWS V14.01,2013-06-28 23:15:00,
2013-06-28 18:30:00,79.1,57.0,29.84,SW,225,9.0,21.0,47,0.00,,,0.00,VWS V14.01,2013-06-28 23:30:00,
2013-06-28 18:45:00,78.4,56.3,29.84,SW,225,9.0,21.0,47,0.00,,,0.00,VWS V14.01,2013-06-28 23:45:00,
2013-06-28 19:00:00,78.4,53.9,29.85,SW,225,10.0,18.0,43,0.00,,,0.00,VWS V14.01,2013-06-29 00:00:00,
2013-06-28 19:15:00,78.3,55.7,29.84,SW,225,9.0,21.0,46,0.00,,,0.00,VWS V14.01,2013-06-29 00:15:00,
2013-06-28 19:30:00,79.1,57.0,29.84,SW,225,9.0,21.0,47,0.00,,,0.00,VWS V14.01,2013-06-29 00:30:00,
2013-06-28 19:40:00,78.3,55.7,29.84,SW,225,9.0,21.0,46,0.00,,,0.00,VWS V14.01,2013-06-29 00:40:00,
2013-06-28 19:45:00,77.7,57.4,29.85,WNW,294,5.0,5.0,50,0.00,,,0.00,VWS V14.01,2013-06-29 00:45:00,
2013-06-28 19:50:00,77.6,57.3,29.85,West,259,4.0,10.0,50,0.00,,,0.00,VWS V14.01,2013-06-29 00:50:00,
2013-06-28 19:55:00,77.5,57.2,29.85,SW,229,13.0,13.0,50,0.00,,,0.00,VWS V14.01,2013-06-29 00:55:00,
2013-06-28 20:00:00,77.2,55.2,29.85,WSW,238,3.0,4.0,47,0.00,,,0.00,VWS V14.01,2013-06-29 01:00:00,
2013-06-28 20:05:00,77.0,56.2,29.85,SW,219,7.0,14.0,49,0.00,,,0.00,VWS V14.01,2013-06-29 01:05:00,
2013-06-28 20:10:00,76.8,56.6,29.85,South,181,3.0,14.0,50,0.00,,,0.00,VWS V14.01,2013-06-29 01:10:00,
2013-06-28 20:15:00,76.5,56.3,29.85,SSW,213,4.0,4.0,50,0.00,,,0.00,VWS V14.01,2013-06-29 01:15:00,
2013-06-28 20:20:00,76.4,56.2,29.85,SW,225,5.0,15.0,50,0.00,,,0.00,VWS V14.01,2013-06-29 01:20:00,
2013-06-28 20:25:00,76.1,56.5,29.85,WSW,255,4.0,15.0,51,0.00,,,0.00,VWS V14.01,2013-06-29 01:25:00,
2013-06-28 20:30:00,76.0,56.4,29.85,WSW,246,5.0,6.0,51,0.00,,,0.00,VWS V14.01,2013-06-29 01:30:00,
2013-06-28 20:35:00,75.7,57.2,29.85,SSW,202,6.0,8.0,53,0.00,,,0.00,VWS V14.01,2013-06-29 01:35:00,
2013-06-28 20:40:00,75.5,57.0,29.85,WSW,238,3.0,12.0,53,0.00,,,0.00,VWS V14.01,2013-06-29 01:40:00,
2013-06-28 20:45:00,75.2,57.3,29.86,West,259,11.0,11.0,54,0.00,,,0.00,VWS V14.01,2013-06-29 01:45:00,
2013-06-28 20:50:00,75.0,57.6,29.86,West,269,7.0,11.0,55,0.00,,,0.00,VWS V14.01,2013-06-29 01:50:00,
2013-06-28 20:55:00,74.6,57.7,29.86,SW,215,8.0,11.0,56,0.00,,,0.00,VWS V14.01,2013-06-29 01:55:00,
2013-06-28 21:00:00,74.2,57.4,29.86,West,267,4.0,11.0,56,0.00,,,0.00,VWS V14.01,2013-06-29 02:00:00,
2013-06-28 21:05:00,73.9,57.6,29.86,WSW,249,1.0,7.0,57,0.00,,,0.00,VWS V14.01,2013-06-29 02:05:00,
2013-06-28 21:10:00,73.5,57.7,29.86,SW,234,6.0,8.0,58,0.00,,,0.00,VWS V14.01,2013-06-29 02:10:00,
2013-06-28 21:15:00,73.1,57.3,29.86,WSW,244,5.0,8.0,58,0.00,,,0.00,VWS V14.01,2013-06-29 02:15:00,
2013-06-28 21:20:00,72.8,57.5,29.86,West,269,4.0,7.0,59,0.00,,,0.00,VWS V14.01,2013-06-29 02:20:00,
2013-06-28 21:25:00,72.4,57.6,29.86,SW,227,5.0,7.0,60,0.00,,,0.00,VWS V14.01,2013-06-29 02:25:00,
2013-06-28 21:30:00,72.0,57.2,29.85,WSW,246,2.0,8.0,60,0.00,,,0.00,VWS V14.01,2013-06-29 02:30:00,
2013-06-28 21:35:00,71.5,57.2,29.86,SW,223,3.0,6.0,61,0.00,,,0.00,VWS V14.01,2013-06-29 02:35:00,
2013-06-28 21:40:00,71.0,57.2,29.85,SW,217,3.0,6.0,62,0.00,,,0.00,VWS V14.01,2013-06-29 02:40:00,
2013-06-28 21:45:00,70.6,56.8,29.86,SW,220,4.0,6.0,62,0.00,,,0.00,VWS V14.01,2013-06-29 02:45:00,
2013-06-28 21:50:00,70.3,57.0,29.86,SW,232,3.0,6.0,63,0.00,,,0.00,VWS V14.01,2013-06-29 02:50:00,
2013-06-28 21:55:00,69.8,57.0,29.86,SW,228,2.0,6.0,64,0.00,,,0.00,VWS V14.01,2013-06-29 02:55:00,
2013-06-28 22:00:00,69.4,56.6,29.86,SW,223,1.0,6.0,64,0.00,,,0.00,VWS V14.01,2013-06-29 03:00:00,
2013-06-28 22:05:00,69.0,56.6,29.86,SW,236,1.0,4.0,65,0.00,,,0.00,VWS V14.01,2013-06-29 03:05:00,
2013-06-28 22:10:00,68.7,56.3,29.86,SSW,213,2.0,4.0,65,0.00,,,0.00,VWS V14.01,2013-06-29 03:10:00,
2013-06-28 22:15:00,68.7,55.9,29.86,SSW,208,2.0,5.0,64,0.00,,,0.00,VWS V14.01,2013-06-29 03:15:00,
2013-06-28 22:20:00,68.8,56.0,29.86,SSW,205,2.0,5.0,64,0.00,,,0.00,VWS V14.01,2013-06-29 03:20:00,
2013-06-28 22:25:00,68.8,55.6,29.86,South,190,3.0,5.0,63,0.00,,,0.00,VWS V14.01,2013-06-29 03:25:00,
2013-06-28 22:30:00,68.8,55.6,29.87,South,188,3.0,6.0,63,0.00,,,0.00,VWS V14.01,2013-06-29 03:30:00,
2013-06-28 22:35:00,68.8,55.6,29.86,SSW,211,4.0,5.0,63,0.00,,,0.00,VWS V14.01,2013-06-29 03:35:00,
2013-06-28 22:40:00,68.7,55.0,29.86,SSW,200,3.0,5.0,62,0.00,,,0.00,VWS V14.01,2013-06-29 03:40:00,
2013-06-28 22:45:00,68.6,54.9,29.86,South,186,4.0,5.0,62,0.00,,,0.00,VWS V14.01,2013-06-29 03:45:00,
2013-06-28 22:50:00,68.4,54.8,29.86,SSW,194,5.0,6.0,62,0.00,,,0.00,VWS V14.01,2013-06-29 03:50:00,
2013-06-28 22:55:00,68.1,54.9,29.86,SSW,202,4.0,6.0,63,0.00,,,0.00,VWS V14.01,2013-06-29 03:55:00,
2013-06-28 23:00:00,67.7,54.5,29.86,South,187,3.0,6.0,63,0.00,,,0.00,VWS V14.01,2013-06-29 04:00:00,
2013-06-28 23:01:00,67.7,54.5,29.86,South,191,3.0,3.0,63,0.00,,,0.00,VWS V14.01,2013-06-29 04:01:00,
2013-06-28 23:06:00,67.5,54.8,29.86,SSW,201,4.0,7.0,64,0.00,,,0.00,VWS V14.01,2013-06-29 04:06:00,
2013-06-28 23:11:00,67.4,54.7,29.86,SSW,202,3.0,7.0,64,0.00,,,0.00,VWS V14.01,2013-06-29 04:11:00,
2013-06-28 23:15:00,68.7,55.9,29.86,SSW,208,2.0,5.0,64,0.00,,,0.00,VWS V14.01,2013-06-29 04:15:00,
2013-06-28 23:16:00,67.2,54.5,29.86,SW,215,4.0,5.0,64,0.00,,,0.00,VWS V14.01,2013-06-29 04:16:00,
2013-06-28 23:21:00,67.0,54.7,29.86,SSW,196,4.0,6.0,65,0.00,,,0.00,VWS V14.01,2013-06-29 04:21:00,
2013-06-28 23:26:00,66.8,55.0,29.86,SSW,193,4.0,6.0,66,0.00,,,0.00,VWS V14.01,2013-06-29 04:26:00,
2013-06-28 23:30:00,68.8,55.6,29.86,South,189,3.0,6.0,63,0.00,,,0.00,VWS V14.01,2013-06-29 04:30:00,
2013-06-28 23:31:00,66.5,55.1,29.86,SSW,192,3.0,5.0,67,0.00,,,0.00,VWS V14.01,2013-06-29 04:31:00,
2013-06-28 23:36:00,66.3,54.9,29.86,SSW,209,5.0,6.0,67,0.00,,,0.00,VWS V14.01,2013-06-29 04:36:00,
2013-06-28 23:41:00,66.1,55.1,29.86,SSW,194,4.0,6.0,68,0.00,,,0.00,VWS V14.01,2013-06-29 04:41:00,
2013-06-28 23:45:00,68.6,54.9,29.86,SSW,197,4.0,5.0,62,0.00,,,0.00,VWS V14.01,2013-06-29 04:45:00,
2013-06-28 23:46:00,65.9,55.3,29.85,South,188,3.0,4.0,69,0.00,,,0.00,VWS V14.01,2013-06-29 04:46:00,
2013-06-28 23:51:00,65.8,55.2,29.85,South,183,3.0,6.0,69,0.00,,,0.00,VWS V14.01,2013-06-29 04:51:00,
2013-06-28 23:56:00,65.5,55.3,29.85,SSE,167,3.0,7.0,70,0.00,,,0.00,VWS V14.01,2013-06-29 04:56:00,